Del Rio, TX

3:59 AM CST on December 11, 2017 (GMT -0600)
Del Rio International

Weather History for KDRT - August, 2013

Change the Weather History Date:

Monday, August 5, 2013

  Actual Average Record
Temperature  
Mean Temperature 91 °F 87 °F  
Max Temperature 102 °F 98 °F 105 °F (1951)
Min Temperature 79 °F 76 °F 68 °F (1908)
Degree Days  
Heating Degree Days 0 0  
Month to date heating degree days 0 0  
Since 1 June heating degree days 0 0  
Since 1 July heating degree days 0 0  
Cooling Degree Days 26 22  
Month to date cooling degree days 129 110  
Year to date cooling degree days 2321 2088  
Since 1 June cooling degree days 1415 1329  
Growing Degree Days 40 (Base 50)    
Moisture  
Dew Point 63 °F    
Average Humidity 45    
Maximum Humidity 67    
Minimum Humidity 23    
Precipitation  
Precipitation 0.00 in 0.04 in 2.33 in (1914)
Month to date precipitation 0.00 0.24  
Year to date precipitation 7.75 11.57  
Sea Level Pressure  
Sea Level Pressure 29.87 in    
Wind  
Wind Speed 11 mph (SE)    
Max Wind Speed 20 mph    
Max Gust Speed 26 mph    
Visibility 10 miles    
Events      
T = Trace of Precipitation, MM = Missing Value Source: NWS Daily Summary

Daily Weather History Graph

Daily Weather History Graph

Search for Another Location

Airport or City:

Trip Planner

Search our weather history database for the weather conditions in past years. The results will help you decide how hot, cold, wet, or windy it might be!

Date:

Astronomy

Aug. 05, 2013 Rise Set
Actual Time 7:06 AM CDT 8:32 PM CDT
Civil Twilight 6:40 AM CDT 8:57 PM CDT
Nautical Twilight 6:10 AM CDT 9:28 PM CDT
Astronomical Twilight 5:38 AM CDT 9:59 PM CDT
Moon 6:02 AM CDT (8/5) 7:37 PM CDT (8/5)
Length of Visible Light 14h 17m
Length of Day
13h 26m
Waning Crescent, 1% of the Moon is Illuminated
Aug 5
Waning Crescent
Aug 6
New
Aug 14
First Quarter
Aug 20
Full
Aug 28
Last Quarter

Hourly Weather History & Observations

Time (CDT) Temp. Heat Index Dew Point Humidity Pressure Visibility Wind Dir Wind Speed Gust Speed Precip Events Conditions
12:53 AM 90.0 °F 93.6 °F 68.0 °F 48% 29.89 in 10.0 mi ESE 16.1 mph 25.3 mph N/A   Clear
1:53 AM 88.0 °F 90.3 °F 66.0 °F 48% 29.90 in 10.0 mi ESE 15.0 mph 21.9 mph N/A   Clear
2:53 AM 86.0 °F 87.6 °F 64.9 °F 49% 29.90 in 10.0 mi ESE 12.7 mph - N/A   Clear
3:53 AM 84.0 °F 85.4 °F 64.0 °F 51% 29.91 in 10.0 mi ESE 8.1 mph - N/A   Clear
4:53 AM 82.9 °F 84.0 °F 63.0 °F 51% 29.91 in 10.0 mi ESE 8.1 mph - N/A   Clear
5:53 AM 81.0 °F 81.9 °F 62.1 °F 52% 29.92 in 10.0 mi East 8.1 mph - N/A   Clear
6:53 AM 80.1 °F 81.5 °F 63.0 °F 56% 29.94 in 10.0 mi ESE 8.1 mph - N/A   Clear
7:53 AM 79.0 °F - 64.9 °F 62% 29.95 in 10.0 mi East 8.1 mph - N/A   Clear
8:53 AM 81.0 °F 83.8 °F 68.0 °F 65% 29.96 in 10.0 mi ESE 13.8 mph - N/A   Clear
9:53 AM 82.9 °F 87.0 °F 70.0 °F 65% 29.96 in 10.0 mi SE 15.0 mph - N/A   Clear
10:53 AM 84.9 °F 89.4 °F 70.0 °F 61% 29.96 in 10.0 mi SSE 8.1 mph - N/A   Clear
11:53 AM 89.1 °F 93.7 °F 69.1 °F 52% 29.95 in 10.0 mi SSE 8.1 mph - N/A   Clear
12:53 PM 91.9 °F 96.9 °F 69.1 °F 47% 29.92 in 10.0 mi SE 8.1 mph - N/A   Clear
1:53 PM 96.1 °F 99.9 °F 66.9 °F 38% 29.89 in 10.0 mi SE 13.8 mph 19.6 mph N/A   Clear
2:53 PM 98.1 °F 100.7 °F 64.0 °F 33% 29.86 in 10.0 mi ESE 15.0 mph 19.6 mph N/A   Clear
3:53 PM 100.0 °F 101.2 °F 61.0 °F 28% 29.83 in 10.0 mi SSE 15.0 mph 24.2 mph N/A   Clear
4:53 PM 100.9 °F 101.6 °F 60.1 °F 26% 29.81 in 10.0 mi SE 12.7 mph 20.7 mph N/A   Clear
5:53 PM 102.0 °F 102.7 °F 60.1 °F 25% 29.79 in 10.0 mi ESE 13.8 mph 20.7 mph N/A   Clear
6:53 PM 100.9 °F 99.6 °F 55.9 °F 22% 29.78 in 10.0 mi ESE 15.0 mph 20.7 mph N/A   Clear
7:53 PM 99.0 °F 98.1 °F 57.0 °F 25% 29.78 in 10.0 mi SE 12.7 mph - N/A   Clear
8:53 PM 96.1 °F 94.5 °F 55.9 °F 26% 29.78 in 10.0 mi SE 8.1 mph - N/A   Clear
9:53 PM 93.9 °F 92.0 °F 55.0 °F 27% 29.79 in 10.0 mi ESE 6.9 mph - N/A   Clear
10:53 PM 91.9 °F 90.3 °F 55.9 °F 30% 29.80 in 10.0 mi ESE 6.9 mph - N/A   Clear
11:53 PM 91.0 °F 89.2 °F 55.9 °F 30% 29.81 in 10.0 mi ESE 8.1 mph - N/A   Clear